Location: Alessandria
(44.9000°N, 8.6170°E)
Time: 02:18:30
(UTC+02:00)

ISS - Pass Details

Date: 11 May 2021
Orbit: 417 x 422 km, 51.6° (Epoch: 14 June)

Event Time Altitude Azimuth Distance (km) Brightness Sun altitude
Exits shadow 02:03:37 26° 24° (NNE) 882 -1.5 -26.5°
Drops below altitude 10° 02:05:35 10° 51° (NE) 1,509 -0.3 -26.4°
Sets 02:07:50 0° 62° (ENE) 2,376 0.6 -26.3°
